King Salmon, AK

2:02 PM AKDT on April 29, 2017 (GMT -0800)
King Salmon

Weather History for PAKN - May, 2013

Change the Weather History Date:

Monday, May 27, 2013

  Actual Average Record
Temperature  
Mean Temperature 47 °F 47 °F  
Max Temperature 58 °F 57 °F 77 °F (2016)
Min Temperature 35 °F 37 °F 27 °F (1976)
Degree Days  
Heating Degree Days 18 18  
Month to date heating degree days 649 576  
Since 1 July heating degree days 10945 10399  
Cooling Degree Days 0    
Month to date cooling degree days 0  
Year to date cooling degree days 0  
Moisture  
Dew Point 37 °F    
Average Humidity 0    
Maximum Humidity 0    
Minimum Humidity 0    
Precipitation  
Precipitation 0.00 in 0.05 in 0.57 in (1978)
Month to date precipitation 0.29 1.07  
Year to date precipitation 6.32 4.52  
Snow  
Snow 0.00 in 0.00 in T in (1999)
Month to date snowfall 0.8 0.8  
Since 1 July snowfall 75.3 46.6  
Snow Depth 0.00 in    
Sea Level Pressure  
Sea Level Pressure 29.74 in    
Wind  
Wind Speed 11 mph (ENE)    
Max Wind Speed 26 mph    
Max Gust Speed 33 mph    
Visibility 10 miles    
Events      
T = Trace of Precipitation, MM = Missing Value Source: NWS Daily Summary

Daily Weather History Graph

Daily Weather History Graph

Search for Another Location

Airport or City:

Trip Planner

Search our weather history database for the weather conditions in past years. The results will help you decide how hot, cold, wet, or windy it might be!

Date:

Astronomy

May. 27, 2013 Rise Set
Actual Time 5:34 AM AKDT 11:14 PM AKDT
Civil Twilight 4:26 AM AKDT 12:22 AM AKDT
Nautical Twilight 2:56 AM AKDT 1:51 AM AKDT
Astronomical Twilight Sun does not set Sun does not set
Moon 12:58 AM AKDT (5/27) 8:39 AM AKDT (5/27)
Length of Visible Light 19h 55m
Length of Day
17h 39m
Waning Gibbous, 90% of the Moon is Illuminated
May 27
Waning Gibbous
May 31
Last Quarter
Jun 8
New
Jun 16
First Quarter
Jun 23
Full

Hourly Weather History & Observations

Time (AKDT) Temp. Windchill Dew Point Humidity Pressure Visibility Wind Dir Wind Speed Gust Speed Precip Events Conditions
12:54 AM 44.1 °F 39.5 °F 37.0 °F 76% 29.77 in 10.0 mi ENE 8.1 mph - N/A   Partly Cloudy
1:54 AM 42.1 °F 37.7 °F 37.0 °F 82% 29.78 in 10.0 mi NE 6.9 mph - N/A   Scattered Clouds
2:54 AM 41.0 °F 35.8 °F 36.0 °F 82% 29.77 in 10.0 mi NNE 8.1 mph - N/A   Scattered Clouds
3:54 AM 37.9 °F 32.1 °F 33.1 °F 83% 29.77 in 10.0 mi NNE 8.1 mph - N/A   Scattered Clouds
4:54 AM 37.0 °F 32.4 °F 32.0 °F 82% 29.76 in 10.0 mi NNE 5.8 mph - N/A   Scattered Clouds
5:54 AM 37.0 °F 32.4 °F 33.1 °F 86% 29.75 in 10.0 mi North 5.8 mph - N/A   Mostly Cloudy
6:54 AM 41.0 °F 36.4 °F 36.0 °F 82% 29.75 in 10.0 mi NNE 6.9 mph - N/A   Mostly Cloudy
7:54 AM 44.1 °F 40.8 °F 37.9 °F 79% 29.75 in 10.0 mi North 5.8 mph - N/A   Mostly Cloudy
8:54 AM 48.0 °F - 39.0 °F 71% 29.75 in 10.0 mi NE 5.8 mph - N/A   Mostly Cloudy
9:54 AM 51.1 °F - 37.9 °F 61% 29.75 in 10.0 mi East 13.8 mph 20.7 mph N/A   Mostly Cloudy
10:54 AM 52.0 °F - 37.9 °F 59% 29.74 in 10.0 mi ESE 16.1 mph 24.2 mph N/A   Overcast
11:54 AM 53.1 °F - 37.0 °F 55% 29.75 in 10.0 mi ENE 18.4 mph 25.3 mph N/A   Overcast
12:54 PM 54.0 °F - 37.0 °F 53% 29.74 in 10.0 mi East 18.4 mph 31.1 mph N/A   Overcast
1:54 PM 54.0 °F - 37.0 °F 53% 29.75 in 10.0 mi East 20.7 mph 26.5 mph N/A   Mostly Cloudy
2:54 PM 54.0 °F - 37.0 °F 53% 29.75 in 10.0 mi East 21.9 mph 29.9 mph N/A   Mostly Cloudy
3:54 PM 55.0 °F - 37.0 °F 51% 29.74 in 10.0 mi East 17.3 mph 26.5 mph N/A   Mostly Cloudy
4:54 PM 57.9 °F - 37.9 °F 47% 29.73 in 10.0 mi East 18.4 mph 26.5 mph N/A   Mostly Cloudy
5:54 PM 55.0 °F - 37.9 °F 53% 29.73 in 10.0 mi East 20.7 mph 27.6 mph N/A   Mostly Cloudy
6:54 PM 55.0 °F - 37.9 °F 53% 29.72 in 10.0 mi East 18.4 mph 25.3 mph N/A   Mostly Cloudy
7:54 PM 54.0 °F - 37.9 °F 55% 29.72 in 10.0 mi ESE 17.3 mph 25.3 mph N/A   Mostly Cloudy
8:54 PM 53.1 °F - 37.9 °F 57% 29.72 in 10.0 mi East 10.4 mph - N/A   Mostly Cloudy
9:54 PM 52.0 °F - 37.9 °F 59% 29.72 in 10.0 mi ESE 5.8 mph - N/A   Scattered Clouds
10:54 PM 48.0 °F - 37.9 °F 68% 29.73 in 10.0 mi Calm Calm - N/A   Scattered Clouds
11:54 PM 42.1 °F - 36.0 °F 79% 29.74 in 10.0 mi Calm Calm - N/A   Scattered Clouds